Location: Bischofferode
(51.4965°N, 10.4434°E)
Time: 18:03:21
(UTC+00:00)

Daily predictions for brighter satellites

Satellite Brightness Start Highest point End
(mag) Time Altitude Azimuth Time Altitude Azimuth Time Altitude Azimuth
Cosmos 2219 Rocket 2.9 20:19:14 10° S 20:24:18 34° ESE 20:29:22 10° NE
Cosmos 2333 Rocket 2.7 20:20:15 10° S 20:25:34 40° ESE 20:30:52 10° NE
FALCON 9 DEB 4.1 20:24:33 10° SSW 20:27:05 23° SE 20:29:38 10° E
Cosmos 1844 4.0 20:24:06 10° NW 20:29:37 63° WSW 20:35:08 10° SSE
ERS-1 Rocket 3.2 20:24:54 10° SSE 20:29:53 65° ENE 20:34:55 10° N
Geosat 4.1 20:25:14 10° SE 20:30:15 79° ENE 20:35:18 10° NNW
Cosmos 1025 Rocket 3.1 20:26:01 10° S 20:30:20 64° E 20:34:40 10° NNE
Lacrosse 5 rocket 1.1 20:27:13 10° SW 20:30:48 53° SE 20:34:19 10° ENE
Cosmos 2228 4.4 20:29:18 10° N 20:33:06 27° ENE 20:36:51 10° SE
Cosmos 1536 Rocket 4.2 20:29:12 10° SSE 20:33:21 39° E 20:37:30 10° NNE
Cosmos 1725 Rocket 4.1 20:27:29 10° N 20:33:40 67° ENE 20:39:49 10° SSE
Spot 2 Rocket 3.6 20:29:38 10° SSE 20:34:42 84° WSW 20:39:50 10° NNW
Cosmos 1331 Rocket 4.0 20:32:36 10° SSW 20:37:51 79° ESE 20:43:10 10° NNE
DNEPR-1 R/B 3.7 20:34:56 10° NW 20:39:08 64° SW 20:43:29 10° SSE
FALCON 9 DEB 3.4 20:39:43 10° SW 20:42:36 35° SSE 20:45:29 10° E
CENTAUR R/B 3.9 20:38:27 10° WSW 20:44:38 50° NNW 20:52:01 10° NE
CARTOSAT-1 3.8 20:41:06 10° S 20:45:24 70° WSW 20:49:44 10° NNW
Cosmos 2237 Rocket 3.8 20:42:20 10° SE 20:45:46 17° E 20:49:13 10° ENE
Terra 2.0 20:41:32 10° SSE 20:46:14 64° ENE 20:50:58 10° N
SL-14 R/B 3.4 20:42:35 10° S 20:46:33 61° E 20:50:32 10° NNE
CZ-2C R/B 4.1 20:42:04 10° NNE 20:46:51 72° WNW 20:51:36 10° SSW
SPOT 1/Viking Rocket 4.3 20:42:31 10° S 20:47:29 49° W 20:52:29 10° NNW
Cosmos 2360 Rocket 2.4 20:42:49 10° SW 20:48:28 77° WNW 20:54:09 10° NNE
Cosmos 1674 3.6 20:45:03 10° SSW 20:48:39 47° WNW 20:52:15 10° N
Cosmos 1953 3.7 20:46:42 10° NNW 20:50:28 36° W 20:54:11 10° SSW
FALCON 9 DEB 3.5 20:47:42 10° SW 20:50:34 33° SSE 20:53:26 10° E
Cosmos 1455 4.1 20:49:06 10° NNE 20:51:56 19° ENE 20:54:44 10° ESE
Cosmos 2322 Rocket 3.4 20:47:16 10° SW 20:52:47 48° NW 20:58:19 10° NNE
SL-16 R/B 3.8 20:47:36 10° WSW 20:52:56 40° NW 20:58:19 10° NNE
FALCON 9 DEB 3.3 20:50:11 10° SW 20:53:07 40° SSE 20:56:04 10° E
SPOT 5 3.0 20:48:41 10° SSE 20:53:46 83° WSW 20:58:36 10° NNW
Cosmos 1802 Rocket 4.3 20:48:11 10° NNW 20:54:26 70° W 21:00:44 10° S
Cosmos 1975 Rocket 4.3 20:51:47 10° SW 20:55:57 43° WNW 21:00:12 10° N
H-2A R/B 4.2 20:52:31 10° NNE 20:56:18 35° E 20:59:53 11° SSE
Meteor 1-24 Rocket 4.0 20:51:48 10° SSE 20:56:55 47° E 21:02:13 10° NNE
Cosmos 1302 Rocket 4.0 20:54:00 10° S 20:59:12 64° ESE 21:04:24 10° NNE
Cosmos 1300 2.7 20:58:48 10° NNW 21:02:39 81° W 21:06:19 11° S
Resurs 01 Rocket 4.1 21:03:56 10° SW 21:06:54 18° W 21:09:53 10° NW
USA 267 3.8 21:04:47 10° E 21:11:13 62° NNE 21:17:40 10° WNW
Cosmos 1340 2.9 21:08:46 10° SSW 21:12:30 69° WNW 21:16:18 10° N
Cosmos 2278 Rocket 2.3 21:10:12 10° NNW 21:15:54 74° ENE 21:20:55 13° SE
Cosmos 2322 3.7 21:10:27 10° SSW 21:16:06 88° ESE 21:21:49 10° NNE
Cosmos 1844 Rocket 4.4 21:11:49 10° NW 21:16:24 26° WSW 21:20:57 10° SSW
COSMOS 2428 2.7 21:12:08 10° SSW 21:17:49 67° ESE 21:23:31 10° NE
Cosmos 389 Rocket 2.5 21:18:19 10° N 21:21:45 69° ENE 21:24:17 17° SSE
Cosmos 1726 Rocket 4.0 21:19:04 10° N 21:23:28 51° ENE 21:26:53 16° SSE
Cosmos 2058 Rocket 4.1 21:19:42 10° N 21:23:47 34° ENE 21:27:08 14° SE
NOSS 0 Rocket 4.4 21:18:10 10° S 21:23:56 42° ESE 21:29:46 10° NE
Cosmos 1867 3.8 21:18:59 10° NW 21:24:25 62° SW 21:28:54 15° SSE
SL-23 DEB 4.5 21:24:31 10° W 21:28:34 79° SSW 21:35:41 10° ESE
Cosmos 968 Rocket 3.9 21:24:08 10° NNW 21:29:09 56° WSW 21:33:29 14° S
Cosmos 1486 Rocket 4.2 21:29:29 10° NNW 21:34:40 66° WSW 21:38:52 15° S
Cosmos 1626 4.2 21:32:29 10° SW 21:35:37 26° WNW 21:38:48 10° NNW
SJ 16-02 3.3 21:32:50 10° N 21:36:11 21° NE 21:39:32 10° E
FALCON 9 DEB 3.4 21:34:51 10° W 21:38:16 71° N 21:41:41 10° ENE
Meteor 2-10 Rocket 3.6 21:33:23 10° NNW 21:38:28 74° W 21:42:36 15° S
Cosmos 1606 Rocket 3.6 21:34:38 10° N 21:39:09 88° E 21:42:32 17° S
Cosmos 2233 Rocket 4.2 21:33:49 10° NNW 21:39:55 67° W 21:45:35 12° S
Cosmos 1943 Rocket 3.5 21:36:28 10° NNW 21:41:23 32° NE 21:46:18 10° ESE
Uosat 12 SS-18 rocket 4.2 21:37:57 10° SW 21:42:23 79° SE 21:47:39 10° NE
Cosmos 1992 Rocket 4.0 21:37:58 10° S 21:43:03 65° ESE 21:48:15 10° NNE
Spot 4 4.3 21:41:10 16° SE 21:44:50 52° ENE 21:49:29 10° N
Cosmos 1892 Rocket 4.0 21:43:59 18° SSE 21:47:01 49° E 21:51:20 10° NNE
Meteor 1-4 Rocket 4.2 21:47:24 10° NNE 21:50:17 23° ENE 21:52:29 14° ESE
Cosmos 1346 Rocket 2.8 21:47:03 14° SSW 21:50:30 85° WNW 21:54:34 10° NNE
Cosmos 1447 Rocket 4.5 21:44:53 11° S 21:50:52 90° W 21:57:05 10° N
Cosmos 1354 Rocket 4.1 21:45:37 10° NNW 21:51:00 90° WSW 21:55:00 18° SSE
ATLAS CENTAUR R/B 3.7 21:48:48 10° WNW 21:51:22 15° WSW 21:54:00 10° SSW
Cosmos 1980 3.9 21:51:14 13° S 21:56:09 56° ESE 22:01:43 10° NE
Cosmos 1441 Rocket 4.2 21:54:42 20° SE 21:56:38 31° E 22:00:02 10° NNE
BREEZE-M DEB (TANK) 3.7 21:48:07 10° SW 21:56:47 34° SSE 22:00:00 10° E
ATLAS 3B R/B 3.0 21:51:58 10° SW 21:58:33 70° NW 22:05:24 10° NE
SL-4 R/B 2.3 21:56:50 10° SW 22:00:37 37° SSE 22:04:09 10° E
ALOS 2 3.4 21:57:53 16° SE 22:01:02 42° ENE 22:05:11 10° N
FALCON 9 DEB 2.8 21:59:22 10° WSW 22:02:30 85° SSE 22:05:39 10° ENE
Cosmos 2219 Rocket 3.1 22:02:33 10° SW 22:08:06 51° NW 22:13:38 10° NNE
Cosmos 1607 4.2 22:02:02 10° NW 22:08:21 60° WSW 22:12:53 19° SSE
Cosmos 2333 Rocket 3.3 22:04:19 10° WSW 22:09:49 45° NW 22:15:20 10° NNE
Lacrosse 5 rocket 2.3 22:06:28 10° W 22:09:58 44° NNW 22:13:25 10° ENE
Cosmos 2228 4.1 22:06:39 10° NNW 22:10:45 39° W 22:14:06 14° SSW
Cosmos 1703 3.8 22:08:43 23° SSE 22:10:51 46° E 22:14:41 10° NNE
Iridium 2 3.8 22:12:19 20° SSW 22:14:50 72° W 22:18:35 10° N
FALCON 9 DEB 3.0 22:14:58 10° W 22:18:04 75° NNW 22:21:10 10° ENE
Meteor 2-1 Rocket 4.2 22:12:46 10° NNW 22:18:19 87° W 22:22:14 20° S
USA 215 3.5 22:12:17 10° ENE 22:18:31 45° SE 22:24:44 10° SSW
Terra 3.8 22:20:57 10° SW 22:24:25 20° W 22:27:54 10° NW
COBE Rocket 3.9 22:22:10 21° SSE 22:25:31 87° E 22:30:28 10° NNW
FALCON 9 DEB 3.0 22:22:59 10° W 22:26:06 77° NNW 22:29:14 10° ENE
SL-16 R/B 3.0 22:23:56 20° SSE 22:27:03 35° ESE 22:32:09 10° NE
Cosmos 1455 3.0 22:24:06 10° NNW 22:27:45 43° W 22:29:59 20° SSW
FALCON 9 DEB 3.1 22:25:33 10° W 22:28:40 72° N 22:31:46 10° ENE
Cosmos 2237 Rocket 2.2 22:23:44 12° SSW 22:29:01 87° ESE 22:34:41 10° NNE
Cosmos 1464 Rocket 4.2 22:23:23 10° NNW 22:29:45 74° W 22:34:26 19° S
Cosmos-2242 4.5 22:26:36 10° N 22:30:29 30° ENE 22:33:34 14° SE
Cosmos 1184 Rocket 2.9 22:29:49 24° SSW 22:31:36 69° WNW 22:34:50 10° N
Cosmos 1328 4.1 22:31:00 26° SSE 22:32:55 50° E 22:36:43 10° NNE
Cosmos 2369 Rocket 3.3 22:30:10 10° NNW 22:35:36 41° NE 22:40:59 10° ESE
Cosmos 192 4.3 22:33:47 17° SSW 22:37:39 89° NW 22:42:37 10° NNE
GEOS 3 Rocket 3.9 22:38:08 21° SSE 22:41:34 54° SW 22:46:49 10° NW
ATLAS CENTAUR R/B 3.7 22:40:45 15° SSW 22:45:13 59° SE 22:58:42 10° ENE
USA 32 4.1 22:44:44 10° N 22:50:01 73° E 22:53:23 23° SSE
Aureole 3 4.0 22:46:48 10° N 22:50:31 51° ENE 22:53:18 21° SE
Cosmos 1816 Rocket 4.5 22:47:51 21° S 22:52:07 80° E 22:58:16 10° NNE
USA 267 3.2 22:47:39 10° SE 22:54:11 76° SSW 23:00:46 10° WNW
Cosmos 1812 Rocket 3.5 22:52:30 10° N 22:56:53 80° E 22:59:21 25° SSE
Okean 1-7 Rocket 3.9 22:54:15 20° SSW 22:57:14 61° WNW 23:01:39 10° N
Cosmos 2278 Rocket 3.8 22:55:07 10° NW 22:59:25 22° WSW 23:02:45 14° SW
BREEZE-M DEB (TANK) 3.0 22:56:51 10° W 23:00:26 76° S 23:11:27 10° E
Cosmos 2058 Rocket 4.4 22:57:50 10° NNW 23:01:43 30° W 23:04:24 17° SW
Cosmos 2297 3.7 22:56:52 10° NNW 23:02:29 71° WSW 23:06:11 22° SSE
Cosmos 2034 Rocket 4.3 22:59:47 10° NNW 23:05:49 57° W 23:10:01 20° SSW
Thor Agena Rocket 4.0 23:01:34 10° NNE 23:06:43 51° E 23:09:46 23° SSE
SAR-Lupe-2 3.6 23:04:22 10° NNE 23:07:58 69° ESE 23:09:33 31° S
NOSS 2-3 (C) 4.4 23:07:22 26° SSE 23:09:00 35° ESE 23:13:24 10° NE
SJ 16-02 1.5 23:10:50 10° NNW 23:15:11 62° WSW 23:17:27 27° S
FALCON 9 DEB 3.1 23:11:52 10° WNW 23:15:19 80° NNE 23:18:43 10° E
Cosmos 1174 4.4 23:14:18 20° SSW 23:18:13 69° SE 23:22:44 10° NE
Meteor 1-27 4.2 23:17:54 10° NNW 23:23:30 88° ENE 23:27:14 22° SSE
GP-B 3.1 23:19:02 10° N 23:23:31 84° W 23:26:01 26° S
Meteor 1-11 4.2 23:19:57 22° S 23:23:39 89° E 23:29:16 10° NNE
Meteor 1-4 Rocket 3.8 23:22:16 10° NNW 23:25:16 28° W 23:26:36 21° SW
Nimbus 7 Rocket 4.5 23:19:19 10° NNE 23:25:25 87° WNW 23:29:47 20° SSW
Cosmos 1943 Rocket 2.3 23:20:04 10° NW 23:25:30 60° WSW 23:28:53 23° S
Cosmos 1825 Rocket 3.9 23:25:14 25° SSE 23:27:40 56° E 23:32:02 10° NNE
MTI 4.2 23:28:10 10° N 23:31:09 51° WNW 23:32:27 28° SW
Cosmos 1892 3.1 23:30:16 27° SSE 23:32:08 53° E 23:35:57 10° NNE
Cosmos 2142 Rocket 4.5 23:27:17 10° N 23:33:27 83° E 23:37:52 20° SSE
Cosmos 1437 Rocket 4.0 23:30:51 10° N 23:34:28 35° ENE 23:37:14 15° SE
Cosmos 1869 3.3 23:31:45 10° N 23:35:53 82° E 23:38:08 26° SSE
Helios 1A 4.3 23:32:32 12° SE 23:36:04 36° ENE 23:39:55 10° N
CZ-2D R/B 4.2 23:33:10 10° NE 23:36:12 15° E 23:39:14 10° ESE
ALOS 2 4.0 23:35:17 17° SW 23:37:31 26° W 23:41:13 10° NW
FALCON 9 DEB 3.3 23:35:12 10° W 23:38:19 63° N 23:41:27 10° E
Tsikada Rocket 4.3 23:34:13 19° SSW 23:38:46 61° WNW 23:44:54 10° N
Cosmos 990 Rocket 3.9 23:34:00 10° NNW 23:39:14 86° WSW 23:42:50 20° SSE
Cosmos 1943 4.2 23:36:45 19° SSE 23:39:57 34° ESE 23:44:58 10° NE
Lacrosse 4 Rocket 3.2 23:36:19 10° NNW 23:40:00 30° NE 23:43:37 10° ESE
SL-4 R/B 1.7 23:36:04 10° WSW 23:40:01 86° SSE 23:43:39 10° E
EO 1 Del DPAF 3.8 23:37:17 10° NNE 23:40:53 45° E 23:42:38 26° SSE
USA 229 DEB 3.8 23:38:46 21° SSW 23:43:06 57° SE 23:49:50 10° NE
USA 229 3.8 23:38:53 21° SSW 23:43:13 57° SE 23:49:56 10° NE
NOSS 8 (F) 4.3 23:43:55 35° S 23:44:52 52° SE 23:47:46 10° NE
Cosmos 1603 4.4 23:46:12 20° SSE 23:49:35 41° ESE 23:54:50 10° NE
Lacrosse 5 rocket 2.8 23:46:17 10° WNW 23:49:35 34° N 23:52:55 10° ENE
ATLAS 3B R/B 4.4 23:44:22 10° W 23:50:22 33° NNW 23:56:35 10° NE
NOSS 3-1 (C) 3.3 23:46:44 16° SW 23:51:09 86° SE 23:57:43 10° NE
Cosmos 1242 Rocket 4.1 23:49:01 10° N 23:52:15 30° ENE 23:55:13 11° SE
Cosmos 1953 Rocket 3.7 23:50:42 24° S 23:53:12 67° E 23:57:36 10° NNE
SL-16 R/B 3.7 23:48:03 10° SE 23:53:44 40° ENE 23:59:25 10° N
FALCON 9 DEB 3.1 23:50:44 10° WNW 23:53:49 70° N 23:56:54 10° E
Cosmos 1937 Rocket 3.6 23:49:07 10° NNW 23:54:29 79° ENE 23:59:01 14° SSE
Cosmos 1408 2.6 23:53:09 29° S 23:54:56 79° E 23:58:39 10° NNE
